Regional Weather Roundup
Issued by NWS Midland/Odessa, TX

Skip options and go directly to product.
Home | Oldest Version | Previous Version | Current Version | All | Graphics & Text | Save Text | Print | Product List | Glossary On

Skip product version selection by date and time.   
151
ASUS44 KMAF 020710
RWRMAF
MIDLAND AREA WEATHER ROUNDUP
NATIONAL WEATHER SERVICE MIDLAND TX
200 AM CDT TUE SEP 02 2014

...IN SOUTHWEST TEXAS AND SOUTHEAST NEW MEXICO...

CITY           SKY/WX    TMP DP  RH WIND       PRES   REMARKS
ALPINE         CLEAR     75  58  54 SW5       30.09S
ANDREWS        FAIR      82  60  46 S14G20    29.94S
ARTESIA        NOT AVBL
BIG SPRING     CLEAR     84  60  43 S15       29.93S
CARLSBAD       CLEAR     81  39  22 SE7       29.89S
DRYDEN           N/A     89  58  34 E14       29.89S
FORT STOCKTON  CLEAR     81  60  48 S15       29.92S
GUAD PASS      CLEAR     77  39  25 W15       30.10F
HOBBS          CLEAR     81  59  47 S16G23    29.96S
MARFA          CLEAR     70  55  60 SW3       30.10R
MIDLAND AIRPK  CLEAR     85  59  41 S13G20    29.92F
MIDLAND INTL   CLEAR     83  60  45 S14       29.91F
ODESSA         CLEAR     83  59  44 S15       29.93S
PECOS          CLEAR     83  58  42 E9        29.86S
PRESIDIO       FAIR      88  58  36 NE7       29.89S
SEMINOLE       CLEAR     82  58  44 S14       29.95S
SNYDER         CLEAR     83  61  47 S13G20    29.91S
WINK           CLEAR     85  61  44 SE15      29.89S
$$
...OTHER STATIONS IN TEXAS...

CITY           SKY/WX    TMP DP  RH WIND       PRES   REMARKS
ABILENE        CLEAR     84  63  49 S17       29.89R
AMARILLO       CLEAR     73  63  70 SE14      29.91F
AUSTIN         MOCLDY    80  74  81 S6        29.93S
BROWNSVILLE    CLEAR     81  78  91 E8        29.87F
CORPUS CHRISTI PTCLDY    82  77  84 SE10      29.89F
DALLAS FTW     CLEAR     85  70  60 S17G24    29.88F
DEL RIO        CLEAR     86  70  58 SE13      29.87R
EL PASO        PTCLDY    81  38  21 S5        29.97S
HOUSTON INT    PTCLDY    79  77  94 S5        29.93F
LUBBOCK        CLEAR     83  60  45 S20       29.92R
SAN ANGELO     CLEAR     83  64  52 S12       29.91R
SAN ANTONIO    MOCLDY    81  74  79 SE12      29.94S
WACO           CLEAR     82  71  69 S14       29.92R
WICHITA FALLS  NOT AVBL
$$
...OTHER LOCATIONS IN NEW MEXICO...

CITY           SKY/WX    TMP DP  RH WIND       PRES   REMARKS
ALAMAGORDO     CLEAR     72  36  26 CALM      29.99S
ALBUQUERQUE    CLEAR     75  39  27 CALM      30.08S
CANNON AFB     CLEAR     76  42  29 NW7       29.96F
CLOVIS           N/A     66  43  42 CALM      29.99S
HOLLOMAN AFB   CLEAR     77  36  22 SE7       29.97S
ROSWELL        CLEAR     72  44  36 E6        29.90F
RUIDOSO        CLEAR     64  34  32 W3        30.21F
SANTA FE       CLEAR     62  30  29 N8        30.14S
TRUTH OR CONSE CLEAR     72  37  28 NW3       30.03R
TUCUMCARI      CLEAR     74  36  25 W7        29.92S
$$

USA.gov is the U.S. government's official web portal to all federal, state and local government web resources and services.